Location: Kunchanapalle
(16.4623°N, 80.6176°E)
Time: 18:13:22
(UTC+00:00)

Cosmos 1697 Rocket - Pass Details

Date: 13 August 2020
Orbit: 834 x 842 km, 71.0° (Epoch: 17 September)

Event Time Altitude Azimuth Distance (km) Brightness Sun altitude
Rises 14:33:33 0° 0° (N) 3,373 6.1 -21.3°
Reaches altitude 10° 14:36:20 10° 12° (NNE) 2,439 5.2 -21.9°
Enters shadow 14:40:07 27° 53° (NE) 1,567 3.8 -22.7°
